Voltar ao catálogo

COSMOS 1275 DEB

AtivoPO
NORAD 42167·DEBRIS·🇷🇺 Russia

Lançado Jun 4, 1981 de Plesetsk Cosmodrome

Loading…

Próximas Passagens (próximas 24 horas)

TLE

EnvelhecendoSource: Space-Track

Época: Sep 9, 2026, 11:38 UTC

1 42167U 81053SF  26252.48514317  .00000439  00000-0  37603-3 0  9995
2 42167  82.8414 339.2934 0054492 314.2722  45.3973 13.84206199645152

Acompanhe COSMOS 1275 DEB em tempo real com AllMySat

Download on the App Store